[[{"header":{"parameterUnit":"m.s-1","parameterCategory":1,"la1":30.2991,"la2":30.254,"lo1":-89.0895,"lo2":-89.0444,"dy":0.0017,"dx":0.0017,"nx":28,"ny":28,"refTime":"2025-06-09T03:00:00:Z","depth":0,"parameterNumber":2,"parameterNumberName":"U-component_of_WINDS"},"data":[0,0,0,0,0,0,0,0,0,0,0,0,0,0,0,0,0,0,0,0,0,0,0,0,0,0,0,0,0,0,0,0,0,0,0,0,0,0,0,0,0,0,0,0,0,0,0,0,0,0,0,0,0,0,0,0,0,0,5.0292,5.0292,0,5.0309,5.0309,5.0309,5.0194,5.0191,5.0188,5.0185,5.0203,5.0207,5.021,0,0,0,0,0,0,0,0,0,0,0,0,0,5.0161,5.0164,5.0292,5.0292,5.0292,5.0309,5.0309,5.0309,5.0195,5.0191,5.0187,5.0183,5.0202,5.0206,5.021,0,0,0,0,0,0,0,0,0,0,0,0,0,5.0202,5.0165,5.0292,5.0237,5.0233,5.0309,5.0309,5.0309,5.0196,5.0191,5.0186,5.0182,5.0201,5.0206,5.0211,5.034,0,0,5.0227,5.0229,0,0,0,0,0,0,0,0,5.02,5.0207,5.0245,5.0241,5.0236,5.0244,5.0269,5.032,5.0197,5.021,5.0185,5.0179,5.0221,5.0224,5.0238,5.0341,5.0342,5.0227,5.0231,5.0233,5.0234,0,0,0,0,0,0,0,5.0197,5.0205,5.0299,5.0246,5.024,5.0212,5.0212,5.0278,5.0242,5.0208,5.02,5.0204,5.0217,5.0233,5.0238,5.0342,5.0227,5.0232,5.0235,5.0237,5.0549,5.0553,0,0,0,0,0,0,5.0201,5.0204,5.0298,5.0299,5.0206,5.0218,5.0219,5.0247,5.0241,5.0236,5.0208,5.0198,5.0227,5.0232,5.0238,5.0386,5.0233,5.0238,5.0241,5.0544,5.055,5.0555,0,0,0,0,0,0,5.0199,5.0211,5.0297,5.0249,5.0258,5.0226,5.0258,5.025,5.0265,5.0241,5.0234,5.023,5.0223,5.023,5.0315,5.0385,5.024,5.0245,5.0537,5.0545,5.0552,5.0685,0,0,0,0,0,0,5.0196,5.0211,5.026,5.0251,5.0261,5.0375,5.0262,5.0253,5.0274,5.0262,5.026,5.0255,5.022,5.0307,5.032,5.0389,5.0249,5.0531,5.0541,5.055,5.0674,5.0696,5.0715,0,0,0,0,0,5.0191,5.0298,5.0263,5.0275,5.0322,5.0379,5.0384,5.0341,5.0281,5.0329,5.0313,5.0255,5.0376,5.0317,5.033,5.0402,5.0526,5.0538,5.0549,5.0665,5.0692,5.0715,0,0,0,0,0,0,5.0317,5.0296,5.0257,5.0363,5.0374,5.0359,5.0419,5.0372,5.04,5.0387,5.0333,5.0333,5.0426,5.0423,5.0358,5.0525,5.044,5.0455,5.0524,5.0549,5.0569,5.0567,5.0253,0,0,0,0,0,5.0356,5.0405,5.0384,5.048,5.0487,5.0453,5.0476,5.0441,5.045,5.0454,5.0444,5.0455,5.0495,5.0522,5.0558,5.0674,5.067,5.073,5.075,5.0767,5.078,5.0837,5.0863,5.0593,5.0593,5.0593,0,0,5.044,5.0434,5.0468,5.0505,5.0508,5.0558,5.0457,5.0515,5.0551,5.0463,5.054,5.0534,5.0543,5.0642,5.0686,5.0643,5.0854,5.0782,5.0796,5.0799,5.0852,5.0877,5.09,5.0601,5.06,5.0598,0,0,5.0615,5.0618,5.0695,5.0701,5.0708,5.0684,5.0703,5.0696,5.0687,5.0765,5.0698,5.0741,5.0812,5.0819,5.0832,5.101,5.0956,5.1023,5.1129,5.1186,5.1207,5.1226,5.1286,5.1308,5.1036,5.1037,5.1037,0,5.0718,5.079,5.0742,5.0804,5.0821,5.0742,5.082,5.0828,5.0847,5.086,5.0811,5.0896,5.0897,5.0995,5.1038,5.1053,5.1071,5.1022,5.1208,5.1226,5.1243,5.1299,5.1322,5.1044,5.1043,5.1043,5.1042,0,5.0914,5.0966,5.1028,5.1046,5.107,5.114,5.1102,5.1132,5.1096,5.1077,5.1155,5.1153,5.1185,5.1207,5.1173,5.13,5.1272,5.1218,5.113,5.1277,5.1329,5.135,5.1055,5.1053,5.105,5.1048,0,0,5.1169,5.1157,5.1181,5.1186,5.1187,5.1226,5.1292,5.1322,5.1348,5.1364,5.1416,5.1477,5.1424,5.1439,5.1405,5.1456,5.1592,5.1394,5.1393,5.1428,5.1729,5.1768,5.1794,5.1558,5.1562,5.1565,5.1727,0,5.1338,5.1447,5.1405,5.1518,5.1563,5.1489,5.1546,5.1552,5.1536,5.1572,5.1555,5.1598,5.1528,5.1535,5.1582,5.1566,5.1651,5.1554,5.1604,5.1606,5.1601,5.1822,5.1864,5.2016,5.1747,5.1751,5.1753,0,5.1549,5.1571,5.1688,5.1678,5.1695,5.1747,5.1769,5.1806,5.1811,5.1796,5.1812,5.1766,5.1829,5.1744,5.1828,5.1763,5.1781,5.1776,5.1781,5.1781,5.1686,5.1825,5.2064,5.2086,5.1786,5.1783,5.1781,0,5.1718,5.1778,5.1854,5.1862,5.1853,5.189,5.1889,5.1889,5.1909,5.193,5.1942,5.1971,5.1986,5.2008,5.1971,5.1913,5.206,5.1973,5.2047,5.2048,5.2079,5.2077,5.2321,5.2097,5.2096,5.2096,5.2096,0,5.1909,5.1983,5.1929,5.1976,5.2056,5.2007,5.2087,5.2077,5.2078,5.2121,5.206,5.2102,5.2052,5.2089,5.206,5.2132,5.2141,5.2129,5.212,5.2132,5.2133,5.2141,5.2128,5.2102,5.2101,5.21,5.2099,0,5.2111,5.2078,5.2156,5.2141,5.2139,5.2198,5.2184,5.2227,5.2207,5.2262,5.2272,5.224,5.228,5.2246,5.2285,5.2266,5.2361,5.2339,5.2358,5.2351,5.2426,5.2418,5.2681,5.2712,5.2471,5.2474,5.2476,0,5.2233,5.2288,5.2278,5.2301,5.2303,5.2343,5.2362,5.2316,5.2338,5.2347,5.2388,5.2423,5.2447,5.2515,5.2495,5.2524,5.25,5.259,5.2504,5.2514,5.2497,5.2492,5.2496,5.2607,5.261,5.2612,5.2614,0,5.2453,5.2433,5.2463,5.2487,5.2511,5.2528,5.2541,5.2564,5.2516,5.2545,5.2584,5.2603,5.2642,5.2676,5.2699,5.2697,5.2647,5.2642,5.266,5.2671,5.2679,5.2672,5.2402,5.2635,5.2633,5.2631,5.263,5.2629,5.2616,5.2659,5.2657,5.2692,5.2696,5.2708,5.2746,5.273,5.2761,5.2788,5.276,5.2807,5.2809,5.2833,5.2837,5.2873,5.2835,5.2862,5.2868,5.2875,5.2884,5.2676,5.2878,5.2877,5.2876,5.2876,5.2875,0,5.2828,5.2823,5.2855,5.2873,5.29,5.2851,5.2861,5.2887,5.2928,5.2934,5.2959,5.3003,5.3036,5.3019,5.3047,5.3078,5.3056,5.3087,5.3082,5.3082,5.2918,5.2898,5.3104,5.3104,5.3104,5.3104,5.3104,5.3104,5.2941,5.3011,5.2991,5.3062,5.3056,5.31,5.311,5.3121,5.3124,5.3176,5.3202,5.319,5.3186,5.3213,5.324,5.3234,5.3246,5.3284,5.327,5.3117,5.3094,5.3072,5.3053,5.3288,5.3288,5.343,5.3431,5.3432]},{"header":{"parameterUnit":"m.s-1","parameterCategory":1,"la1":30.2991,"la2":30.254,"lo1":-89.0895,"lo2":-89.0444,"dy":0.0017,"dx":0.0017,"nx":28,"ny":28,"refTime":"2025-06-09T03:00:00:Z","depth":0,"parameterNumber":3,"parameterNumberName":"V-component_of_WINDS"},"data":[0,0,0,0,0,0,0,0,0,0,0,0,0,0,0,0,0,0,0,0,0,0,0,0,0,0,0,0,0,0,0,0,0,0,0,0,0,0,0,0,0,0,0,0,0,0,0,0,0,0,0,0,0,0,0,0,0,0,4.6017,4.602,0,4.6283,4.6286,4.6289,4.6327,4.6325,4.6322,4.632,4.6595,4.6605,4.6614,0,0,0,0,0,0,0,0,0,0,0,0,0,4.5543,4.5551,4.6017,4.602,4.6024,4.6283,4.6286,4.629,4.6328,4.6325,4.6322,4.6319,4.6592,4.6604,4.6615,0,0,0,0,0,0,0,0,0,0,0,0,0,4.5773,4.5554,4.6016,4.6073,4.6081,4.6282,4.6286,4.6291,4.6328,4.6325,4.6321,4.6317,4.6588,4.6602,4.6617,4.678,0,0,4.6661,4.6667,0,0,0,0,0,0,0,0,4.576,4.579,4.6062,4.607,4.6079,4.6268,4.622,4.6455,4.6329,4.6235,4.632,4.6316,4.649,4.6512,4.657,4.6793,4.6804,4.6662,4.6671,4.6677,4.6681,0,0,0,0,0,0,0,4.5744,4.5779,4.6122,4.6066,4.6076,4.6086,4.6115,4.6265,4.638,4.6243,4.6246,4.6277,4.6494,4.6556,4.6577,4.6808,4.6662,4.6675,4.6683,4.6689,4.7176,4.718,0,0,0,0,0,0,4.5717,4.5765,4.6114,4.613,4.5907,4.6098,4.613,4.6211,4.6378,4.64,4.628,4.6277,4.6533,4.656,4.6587,4.6787,4.6677,4.669,4.6699,4.7172,4.7177,4.7182,0,0,0,0,0,0,4.5707,4.5748,4.6103,4.5949,4.5995,4.611,4.6201,4.6218,4.6281,4.6406,4.6427,4.6322,4.6531,4.6566,4.6731,4.6797,4.6697,4.671,4.7167,4.7174,4.7179,4.719,0,0,0,0,0,0,4.5693,4.5744,4.5807,4.595,4.6003,4.6242,4.6205,4.6226,4.6305,4.6305,4.6452,4.6472,4.6531,4.6709,4.6745,4.6815,4.6721,4.7161,4.717,4.7177,4.7184,4.7196,4.7206,0,0,0,0,0,4.5676,4.58,4.581,4.5852,4.6084,4.6246,4.6277,4.6341,4.631,4.6375,4.6455,4.6468,4.6784,4.6726,4.6767,4.6842,4.7158,4.7167,4.7177,4.7179,4.7193,4.7206,0,0,0,0,0,0,4.5663,4.582,4.5832,4.6007,4.6112,4.6252,4.6335,4.6354,4.6472,4.6467,4.6543,4.6575,4.6736,4.6806,4.6738,4.7008,4.6968,4.6986,4.6956,4.6971,4.6981,4.6961,4.6733,0,0,0,0,0,4.568,4.5798,4.5929,4.607,4.6123,4.622,4.6293,4.6333,4.6446,4.6492,4.6584,4.6694,4.6818,4.6898,4.702,4.7194,4.7226,4.7266,4.7277,4.7285,4.73,4.7396,4.7415,4.7213,4.7213,4.7213,0,0,4.5718,4.5818,4.5888,4.607,4.6157,4.6278,4.6257,4.6386,4.6477,4.6512,4.6672,4.6743,4.6871,4.7041,4.712,4.7104,4.7363,4.7298,4.7303,4.7314,4.7408,4.7427,4.7444,4.722,4.7219,4.7218,0,0,4.5847,4.5935,4.6061,4.6148,4.6279,4.6343,4.6373,4.651,4.6558,4.6719,4.6748,4.6856,4.7069,4.7158,4.7232,4.7392,4.7408,4.743,4.7487,4.7579,4.7595,4.7609,4.7665,4.7685,4.7444,4.7444,4.7444,0,4.5877,4.6059,4.6124,4.6251,4.633,4.6366,4.6494,4.6576,4.674,4.6794,4.6773,4.7039,4.7128,4.7318,4.7357,4.7415,4.7452,4.7413,4.7587,4.7602,4.7617,4.7671,4.7692,4.7446,4.7446,4.7446,4.7445,0,4.6089,4.6214,4.6301,4.6457,4.6545,4.6673,4.6757,4.6839,4.6871,4.6936,4.71,4.7207,4.735,4.7398,4.7432,4.7593,4.7579,4.7572,4.7534,4.7637,4.7689,4.771,4.7448,4.7448,4.7447,4.7447,0,0,4.6218,4.6407,4.6437,4.6507,4.6654,4.6753,4.6881,4.7019,4.7088,4.72,4.7309,4.7487,4.7481,4.7564,4.7608,4.7689,4.7807,4.7672,4.7676,4.7692,4.799,4.7993,4.8016,4.7819,4.7823,4.7826,4.7979,0,4.6363,4.6592,4.6653,4.6848,4.6964,4.6999,4.7111,4.7212,4.7277,4.7385,4.7457,4.7581,4.7564,4.7614,4.7696,4.7775,4.7868,4.7765,4.7921,4.7925,4.7886,4.8044,4.8048,4.8187,4.8,4.8003,4.8006,0,4.6563,4.6677,4.6882,4.7012,4.7063,4.7162,4.7293,4.7396,4.7512,4.7553,4.7645,4.7681,4.7815,4.777,4.7957,4.7885,4.7953,4.8001,4.8008,4.8024,4.7971,4.8063,4.8233,4.8253,4.8039,4.8036,4.8034,0,4.6635,4.684,4.6989,4.7048,4.7204,4.7272,4.734,4.7453,4.7531,4.7646,4.7697,4.7826,4.7897,4.7996,4.8065,4.8026,4.8246,4.8207,4.8283,4.8281,4.8327,4.8323,4.8509,4.8372,4.8372,4.8371,4.8371,0,4.679,4.6914,4.7022,4.7114,4.7253,4.7323,4.7459,4.7529,4.7628,4.7733,4.7772,4.7871,4.7957,4.8067,4.8122,4.8267,4.8299,4.8336,4.8349,4.8332,4.8327,4.8376,4.8368,4.8377,4.8376,4.8375,4.8374,0,4.6893,4.6971,4.7135,4.7268,4.7305,4.7401,4.7516,4.7606,4.767,4.7803,4.7839,4.7941,4.8072,4.8151,4.8318,4.8355,4.8514,4.8524,4.8475,4.848,4.8552,4.8543,4.8775,4.8808,4.865,4.8651,4.8653,0,4.6986,4.7082,4.7225,4.7297,4.7366,4.7483,4.7563,4.7635,4.7716,4.7855,4.7928,4.8061,4.8171,4.8379,4.8469,4.8596,4.8608,4.868,4.8628,4.8607,4.8608,4.86,4.861,4.8689,4.869,4.8691,4.8692,0,4.7143,4.7176,4.7289,4.7416,4.7509,4.7613,4.7716,4.7773,4.7862,4.7952,4.8086,4.8171,4.834,4.8471,4.8606,4.8676,4.8699,4.8708,4.8732,4.8716,4.8682,4.87,4.8498,4.8703,4.8702,4.8701,4.87,4.87,4.7244,4.733,4.7443,4.7567,4.7651,4.7746,4.7836,4.7912,4.8024,4.8166,4.8202,4.8342,4.8455,4.8638,4.8711,4.8821,4.881,4.8846,4.8854,4.8862,4.8862,4.8665,4.8846,4.8846,4.8846,4.8846,4.8846,0,4.7401,4.7475,4.7588,4.773,4.7827,4.7839,4.7953,4.8034,4.8156,4.8259,4.8366,4.8519,4.8646,4.8745,4.8875,4.8945,4.8958,4.8977,4.8972,4.8987,4.8866,4.8831,4.8963,4.8963,4.8963,4.8963,4.8963,4.8963,4.7494,4.7639,4.7686,4.7873,4.7947,4.8083,4.8147,4.8235,4.8317,4.8485,4.859,4.8653,4.8755,4.8892,4.9009,4.9035,4.9081,4.9097,4.9124,4.9009,4.8996,4.8984,4.8952,4.9107,4.9107,4.9236,4.9237,4.9238]}]]